CZ-4C DEB, 43338

Orbit data source: Space-Track

CZ-4C DEB, 43338 is space debris in LEO originally from a launch on Tue, 10 Apr 2018 UTC launched from the Jiuquan Satellite Launch Center, China (JSC). Debris objects in space refer to the collection of defunct objects orbiting the Earth. Examples of debris include non-operational satellites, rocket bodies, and fragments generated from explosions, collisions, or faulty payload assembly.

Loading next visibility...
Identifier
43338, 2018-034H
Orbit
LEO
Country
Flag of CNCN / PRC
Related business
Manufacturer
Unknown
Mission
Spacecraft
Bus & Motor
Unknown
Mass
Unknown
Launch date (UTC)
2018-04-10 (8 years ago)
Launch vehicle
Unknown
Launch site
Jiuquan Satellite Launch Center, China (JSC)
Object type
Payload
Rocket body
Debris
Shape & HBR
Unknown shape, 0.1 m
Radar Cross Section
Small (<0.1 m²)

Expand to show TLE details & history
Last TLE update: 3 days ago

TLE from 3 days ago
0 CZ-4C DEB
1 43338U 18034H   25284.55506374 -.00000061  00000-0  41743-4 0  9994
2 43338  63.3988  18.5965 0252594   7.5631 352.9093 13.44703428368423
Epoch: 2025-10-11T13:19Z
TLE epoch observation values (Epoch: 2025-10-11T13:19:17.507Z)
Latitude
0.00002°
Longitude
158.38869°
Altitude
906.39 km
Speed
7.491 km/s
True Right ascension
01h 14m 23s
True Declination
0° 00' 00"
Sunlit
Object was in full shadow at epoch
Visualization orbit readout
Latitude
Unknown
Longitude
Unknown
Altitude
Unknown
Speed
Unknown
Apparent Right ascension
Unknown
Apparent Declination
Unknown
Sunlit
N/A
Visualization observer readout
Local Sidereal Time
12:12:19
Azimuth
Unknown
Elevation
Unknown
Doppler factor
Unknown
Orbital elements
Apogee altitude
1,279.295 km
Perigee altitude
901.982 km
Semi-major axis
7,468.776 km
Eccentricity
0.02526
Inclination
63.3988°
RAAN
18.5965°
Arg. of periapsis
7.5631°
True anomaly
352.54046°
Mean anomaly
352.9093°
Eccentric anomaly
352.72606°
Mean motion
3.36255 °/min
Orbital period
107.06 mins
BSTAR
0.000041743
Loading maneuver chart data...
Computing Atmospheric mass density...
Loading historical data...
Loading historical data...
Loading historical data...
Loading historical data...
Loading historical data...
Loading historical data...
Loading historical data...

Documentation

Showing up to 5 results
|